User: anonymous   Login
Location: Niverville
(49.6028°N, 97.0419°W)
Time: 08:58:51
(UTC-06:00)
Language:

Cosmos 2237 Rocket - Orbit

View from above orbital plane
View from above orbital plane
View from above satellite
View from above satellite

Ground track
Ground track

The orbit data is extracted from the following two-line orbital elements,

1 22566U 93016B   18052.97181504  .00000146  00000-0  10026-3 0  9994
2 22566  71.0042 262.6065 0008554 120.4791 239.7177 14.14954954286604
Epoch (UTC): 21 February 2018 23:19:24
Eccentricity: 0.0008554
inclination: 71.0042°
perigee height: 836 km
apogee height: 848 km
right ascension of ascending node: 262.6065°
argument of perigee: 120.4791°
revolutions per day: 14.14954954
mean anomaly at epoch: 239.7177°
orbit number at epoch: 28660

The dashed part of the orbit path shows where the satellite is in the earth's shadow,  

DLR